This demonstration page uses our WeatherBlox Daily Observations layout. Learn more.

Left ArrowRight Arrow

Hourly Observations for June 25, 2019

Temp ( °F °C ) Dew Point ( °F °C ) Humidity (%) Winds ( mph kmh ) Pressure ( in mb ) Visibility ( mi km ) Precip ( " mm )
12:56 am 00:56 Clear 72 22 57 14 61 61 SSE 5 7 29.73 1007 10 16 0.00 0.00
1:56 am 01:56 Clear 72 22 57 14 61 61 SSE 6 9 29.72 1007 10 16 0.00 0.00
2:56 am 02:56 Clear 72 22 57 14 61 61 S 14 22 29.71 1006 10 16 0.00 0.00
3:56 am 03:56 Mostly Clear 70 21 57 14 64 64 S 7 11 29.72 1006 10 16 0.00 0.00
4:43 am 04:43 Mostly Cloudy with Light Rain 68 20 59 15 73 73 undefined N/A 29.78 1008 6 10 0.00 0.03
4:56 am 04:56 Mostly Cloudy with Light Showers 68 20 59 15 73 73 NW 6 9 29.78 1009 6 10 0.00 0.03
5:02 am 05:02 Mostly Cloudy 68 20 57 14 69 69 NNE 6 9 29.78 1009 10 16 0.00 0.00
5:56 am 05:56 Mostly Cloudy 68 20 57 14 69 69 N 8 13 29.80 1009 10 16 0.00 0.00
6:56 am 06:56 Partly Cloudy 68 20 57 14 69 69 Calm 29.79 1009 10 16 0.00 0.00
7:56 am 07:56 Partly Cloudy 72 22 57 14 61 61 SSW 3 6 29.81 1010 10 16 0.00 0.00
8:56 am 08:56 Mostly Sunny 73 23 57 14 57 57 Calm 29.82 1010 10 16 0.00 0.00
9:56 am 09:56 undefined N/A N/A N/A Calm N/A N/A 0.00 0.00
9:59 am 09:59 Mostly Sunny 79 26 57 14 48 48 W 3 6 29.83 1010 10 16 0.00 0.00
10:56 am 10:56 undefined N/A N/A N/A W 6 9 N/A N/A 0.00 0.00
11:56 am 11:56 Partly Cloudy 84 29 55 13 37 37 SW 3 6 29.85 1011 10 16 0.00 0.00
12:56 pm 12:56 Partly Cloudy 86 30 57 14 38 38 NW 3 6 29.86 1011 7 11 0.00 0.00
1:56 pm 13:56 Partly Cloudy 86 30 57 14 38 38 ESE 5 7 29.85 1011 7 11 0.00 0.00
2:56 pm 14:56 Partly Cloudy 86 30 57 14 38 38 Calm 29.85 1011 7 11 0.00 0.00
3:35 pm 15:35 Partly Cloudy with Thunderstorms 86 30 57 14 38 38 ENE 5 7 29.84 1010 10 16 0.00 0.00
3:56 pm 15:56 Partly Cloudy with Thunderstorms N/A N/A N/A NNE 3 6 29.87 1012 10 16 0.00 0.00
4:06 pm 16:06 Mostly Cloudy with Thunderstorms 84 29 57 14 40 40 Calm 29.87 1012 6 10 0.00 0.00
4:56 pm 16:56 Mostly Cloudy with Thunderstorms N/A N/A N/A NE 6 9 29.85 1011 6 10 0.00 0.00
5:12 pm 17:12 Partly Cloudy N/A N/A N/A NE 6 9 29.85 1011 10 16 0.00 0.00
5:56 pm 17:56 Partly Cloudy 81 27 61 16 51 51 NE 6 9 29.83 1010 10 16 0.00 0.00
6:56 pm 18:56 Mostly Sunny 81 27 61 16 51 51 NE 6 9 29.83 1010 10 16 0.00 0.00
7:56 pm 19:56 Mostly Sunny 79 26 59 15 51 51 ENE 6 9 29.83 1010 10 16 0.00 0.00
8:56 pm 20:56 Mostly Sunny 77 25 61 16 57 57 E 3 6 29.83 1010 10 16 0.00 0.00
9:56 pm 21:56 Mostly Clear 75 24 59 15 57 57 E 3 6 29.85 1011 10 16 0.00 0.00
10:56 pm 22:56 Mostly Clear 75 24 59 15 57 57 ENE 3 6 29.87 1012 10 16 0.00 0.00
11:56 pm 23:56 Mostly Cloudy 73 23 59 15 61 61 E 5 7 29.88 1012 10 16 0.00 0.00

Powered by AerisWeather